{"data":{"norad_id":55970,"intl_designator":"2023-038A","name":"SES-18","alt_names":[],"object_type":"PAYLOAD","status":"ACTIVE","operator":null,"country":"SES","launch_date":"2023-03-17","launch_site_code":"AFETR","launch_vehicle":null,"mission":null,"orbit_class":"UNKNOWN","rcs_meters":null,"size_class":null,"mass_kg":null,"dimensions":null,"purposes":["comms"],"wikipedia_slug":null,"has_3d_model":false,"image_url":null,"decayed_at":null,"tle_current":{"epoch":"2026-09-20T03:57:42.357312Z","epoch_age_seconds":43424,"freshness":"FRESH","line1":"1 55970U 23038A   26263.16507358 -.00000105  00000+0  00000+0 0  9991","line2":"2 55970   0.0376 273.5741 0002326 311.8293  89.9937  1.00272276 13054","mean_motion":1.00272276,"eccentricity":0.0002326,"inclination_deg":0.0376,"raan_deg":273.5741,"arg_perigee_deg":311.8293,"mean_anomaly_deg":89.9937,"bstar":0,"rev_number":1305,"period_min":1436.0898719403,"perigee_km":35776.64983199,"apogee_km":35796.264801267,"semimajor_km":42164.594316629,"source":"CELESTRAK","updated_at":"2026-09-20T09:00:35.688855Z"}}}